TIME,DELAY(SENSOR),PRES,OXYGEN,RAWTEMP,T(OPTODE),TCPHASE,FLUOR,BETA(BETA700),BETA(BETA412),BETA(BETA440),CDOM,C(CSC),ED(ED411.90),ED(ED443.80),ED(ED489.40),ED(ED554.70),LU(LU412.20),LU(LU443.80),LU(LU489.40),LU(LU555.00),COMP,TILTX,TILTY,CHECK
1366497905,5803,879.1099853515625000,169.7875976562500000,489.6734924316406000,7.8495121002197270,39.7367210388183600,52,132,103,85,80,11265,2146962413,2147515574,2147290697,2147509430,2147080704,2146929837,2147715977,2147124434,1222,-1,8,156
1366501501,5806,985.7500000000000000,224.0352935791015600,532.1953735351562000,6.5270709991455080,37.0679893493652340,52,101,99,80,82,11305,2146963940,2147518893,2147294921,2147518921,2147086400,2146925851,2147724699,2147120429,2453,-1,8,42652
1366505101,5806,1005.6599731445312000,235.8536987304687500,541.4083862304688000,6.2388310432434080,36.6002388000488300,51,105,107,79,81,11257,2146962203,2147522870,2147299072,2147517467,2147085750,2146922614,2147727433,2147123949,695,-1,8,1011
1366508701,5805,1007.7299804687500000,237.0341033935547000,543.3101806640625000,6.1792469024658200,36.5730514526367200,52,100,98,79,81,11249,2146966262,2147520457,2147298331,2147517385,2147086345,2146918116,2147723574,2147120914,2530,-1,8,2431
1366512301,5804,1013.6900024414062000,239.1331939697265600,544.1835937500000000,6.1518759727478030,36.4803390502929700,52,103,96,80,81,11254,2146964233,2147516992,2147297600,2147519552,2147085760,2146925942,2147725677,2147122267,2442,-1,8,26874
1366515901,5806,1012.6599731445312000,240.4718017578125000,546.0343017578125000,6.0938568115234375,36.4450111389160160,51,102,96,79,81,11249,2146964059,2147516452,2147300013,2147520256,2147086866,2146918866,2147724041,2147121371,3160,-1,8,40615
1366519501,5807,1014.9600219726562000,239.6553039550781200,546.8563842773438000,6.0680770874023440,36.5023193359375000,51,100,183,79,81,11252,2146966290,2147520246,2147299108,2147515748,2147085668,2146919021,2147728155,2147118857,334,-1,8,48803
1366523101,5805,1012.0499877929688000,239.7720031738281200,547.5485229492188000,6.0463681221008300,36.5083503723144500,52,103,97,78,81,11253,2146964178,2147515757,2147299172,2147517394,2147083126,2146918902,2147724333,2147123465,3124,-1,8,3379
1366526701,5805,1007.0100097656250000,243.0227966308593800,550.8986206054688000,5.9412350654602050,36.4038696289062500,52,103,97,80,79,11243,2146960722,2147519771,2147301476,2147522313,2147087460,2146921645,2147724617,2147121234,3536,-1,8,45306
1366530301,5809,1011.9600219726562000,247.6378021240234400,551.8223266601562000,5.9122300148010250,36.1893081665039060,52,105,101,79,81,11239,2146963154,2147519241,2147298880,2147517056,2147084598,2146921819,2147727140,2147120548,89,-1,8,13079
1366533901,5807,1014.2000122070312000,248.1298980712890600,551.6210937500000000,5.9185490608215330,36.1617889404296900,52,104,97,80,81,11240,2146961837,2147518326,2147301952,2147520539,2147087990,2146918290,2147730797,2147123081,125,-1,8,60364
1366537501,5805,1015.8599853515625000,244.6383056640625000,552.5955810546875000,5.8879427909851070,36.3530807495117200,52,100,97,79,81,11240,2146964946,2147515830,2147301769,2147516644,2147088182,2146918619,2147725129,2147121298,3249,-1,8,44575
1366541101,5808,1015.2700195312500000,247.3148956298828000,552.5847167968750000,5.8882880210876465,36.2193984985351560,52,110,97,78,80,11238,2146963273,2147517915,2147300041,2147520237,2147084123,2146917668,2147729664,2147122029,12,0,8,44155
1366544701,5808,1017.6400146484375000,245.2209014892578000,552.6995239257812000,5.8846797943115230,36.3258399963378900,52,101,98,80,81,11235,2146965467,2147514962,2147297910,2147518354,2147085284,2146916836,2147730678,2147121846,29,-1,8,50337
1366548301,5805,1016.5900268554688000,248.3101959228515600,553.1646728515625000,5.8700699806213380,36.1805496215820300,51,103,97,79,81,11227,2146966107,2147519030,2147299300,2147515766,2147085056,2146918921,2147727222,2147122203,3092,-1,8,27137
1366551901,5808,1020.0900268554688000,248.0872955322265600,552.2227783203125000,5.8996539115905760,36.1746902465820300,52,104,97,80,80,11224,2146962742,2147517531,2147295954,2147516278,2147083062,2146916022,2147726427,2147121389,100,-1,8,51161
1366555501,5806,1017.6199951171875000,246.5758972167968800,552.3001708984375000,5.8972210884094240,36.2505683898925800,52,101,97,79,81,11224,2146964141,2147519670,2147298825,2147516717,2147082258,2146919680,2147723904,2147118637,223,-1,8,35964
1366559101,5805,1018.1199951171875000,248.0856933593750000,552.5958862304688000,5.8879342079162600,36.1816291809082000,51,103,97,80,80,11222,2146966902,2147516845,2147298642,2147521024,2147087122,2146922688,2147728374,2147118564,121,-1,8,52937
1366562701,5806,1019.0200195312500000,246.4387969970703000,552.6243286132812000,5.8870449066162110,36.2632904052734400,52,106,96,80,80,11225,2146963977,2147517769,2147297078,2147517339,2147089801,2146919232,2147727085,2147122907,281,-1,8,65276
1366566301,5806,1025.2800292968750000,245.6206054687500000,550.4188232421875000,5.9562950134277340,36.2645683288574200,52,104,97,79,80,11212,2146963958,2147517632,2147299584,2147517211,2147083236,2146920384,2147724928,2147122816,973,-1,8,833
1366569901,5806,1029.1199951171875000,243.9185943603515600,548.4926757812500000,6.0167469978332520,36.3147392272949200,52,105,98,79,80,11224,2146963072,2147518884,2147301284,2147518354,2147089088,2146918610,2147728000,2147122724,864,-1,8,50919
1366573501,5806,1025.1899414062500000,243.8766937255859400,549.1298828125000000,5.9967517852783200,36.3281707763671900,52,102,98,79,80,11222,2146962102,2147516900,2147297280,2147518006,2147087552,2146919570,2147724096,2147123218,515,-1,8,20831
1366577101,5807,1025.0400390625000000,242.9985961914062500,550.8333740234375000,5.9432787895202640,36.4038314819335940,51,101,97,79,81,11222,2146965366,2147520274,2147298998,2147517513,2147081472,2146920182,2147730185,2147124790,3445,-1,8,44718
1366580701,5804,1024.8800048828125000,243.2162017822265600,551.3267211914062000,5.9277939796447750,36.4015808105468750,52,100,99,80,81,11219,2146964205,2147519945,2147299309,2147516306,2147085257,2146922852,2147730075,2147120978,3340,0,8,12870
1366584301,5805,1017.2399902343750000,248.0588989257812500,553.4722900390625000,5.8604049682617190,36.1986198425293000,52,105,96,78,81,11221,2146966674,2147518592,2147296548,2147520512,2147084699,2146918281,2147729170,2147123236,3513,-1,8,3743
1366587901,5804,1017.0000000000000000,248.3450012207031200,556.0266113281250000,5.7801318168640140,36.2309608459472660,52,104,97,79,81,11220,2146963218,2147518976,2147299264,2147520704,2147085970,2146923145,2147730441,2147121078,3462,-1,8,16541
1366591501,5803,1011.4600219726562000,250.0984039306640600,557.3657836914062000,5.7380280494689940,36.1691398620605500,52,102,98,80,80,11221,2146963108,2147517302,2147303030,2147518811,2147085577,2146919908,2147731017,2147122770,3295,-1,8,24150
1366595101,5807,1008.2999877929688000,253.3079071044922000,558.4232177734375000,5.7047710418701170,36.0322418212890600,51,101,96,79,80,11224,2146966336,2147520109,2147298486,2147517037,2147088804,2146917860,2147727954,2147120274,3390,-1,8,35081
1366598701,5809,1017.3499755859375000,253.7816925048828000,557.1378784179688000,5.7451920509338380,35.9858398437500000,53,101,97,79,80,11220,2146961033,2147520164,2147302171,2147521755,2147087241,2146920749,2147732059,2147120576,2726,-1,8,64761
1366602301,5805,1009.5700073242188000,253.2980957031250000,558.5543212890625000,5.7006468772888180,36.0350914001464840,52,102,97,79,81,11222,2146964598,2147519899,2147300416,2147522898,2147087597,2146923282,2147729682,2147120960,3131,-1,8,258
1366605901,5808,1014.4099731445312000,255.1927032470703000,557.8247070312500000,5.7235951423645020,35.9301109313964840,51,105,97,78,80,11218,2146967533,2147520868,2147301933,2147517257,2147085056,2146914898,2147727789,2147121325,66,0,8,65377
1366609501,5804,1011.2199707031250000,255.1593933105468800,558.4841918945312000,5.7028498649597170,35.9436683654785160,53,103,97,79,81,11208,2146963190,2147520539,2147300489,2147519085,2147089426,2146924032,2147730304,2147119497,3344,0,8,29920
1366613101,5808,1011.5900268554688000,255.7142028808593800,559.3187255859375000,5.6765999794006350,35.9323692321777340,52,100,97,79,81,11198,2146965348,2147517467,2147302976,2147522166,2147086253,2146919094,2147730669,2147122678,66,-1,8,42103
1366616701,5805,1020.7100219726562000,254.5968933105468800,557.2141113281250000,5.7427978515625000,35.9481697082519500,52,102,97,78,80,11200,2146963318,2147519241,2147298889,2147519853,2147087067,2146923392,2147730678,2147122322,245,-1,8,50723
1366620301,5805,1016.8300170898438000,253.2756958007812500,556.9287719726562000,5.7517681121826170,36.0062103271484400,52,105,98,79,81,11203,2146962148,2147517165,2147300653,2147520795,2147086290,2146919341,2147729225,2147121197,3255,-1,8,14856
1366623901,5806,1019.0399780273438000,252.0693969726562500,557.6420288085938000,5.7293400764465330,36.0778999328613300,52,102,96,78,80,11203,2146964973,2147519369,2147300754,2147519387,2147084141,2146920612,2147731282,2147120493,378,-1,8,64391
1366627501,5804,1019.8900146484375000,252.6524047851562500,556.7893066406250000,5.7561550140380860,36.0339202880859400,52,102,98,80,81,11197,2146965092,2147516964,2147299977,2147521526,2147085458,2146923693,2147729051,2147121901,3461,-1,8,39072
1366631101,5808,1018.3599853515625000,252.3341064453125000,557.0983276367188000,5.7464389801025390,36.0551986694335940,52,104,96,80,80,11197,2146963126,2147519707,2147299008,2147518016,2147086016,2146919597,2147730733,2147119780,54,-1,8,37518
1366634701,5808,1017.8200073242188000,253.0471954345703000,557.2116699218750000,5.7428741455078125,36.0223693847656250,51,105,98,89,80,11199,2146962486,2147518354,2147303030,2147520640,2147086080,2146919981,2147732278,2147121453,246,-1,8,12655
1366638301,5807,1022.2000122070312000,251.6040039062500000,555.7368164062500000,5.7892441749572750,36.0656318664550800,53,104,98,80,79,11199,2146962925,2147518427,2147299410,2147519469,2147087030,2146921984,2147729033,2147122761,3258,-1,8,39217
1366641355,5805,1022.3800048828125000,251.8910064697265600,555.5086059570312000,5.7964172363281250,36.0474891662597660,52,104,97,79,80,11254,2146965504,2147518811,2147298496,2147518665,2147086454,2146921581,2147730166,2147123364,650,-1,8,49706
